Location: Jihlava
(49.4000°N, 15.5830°E)
Time: 11:52:03
(UTC+01:00)

ISS - Visible Passes

Search period start: 20 January 2018 00:00
Search period end: 30 January 2018 00:00
Orbit: 402 x 407 km, 51.6° (Epoch: 20 January)

Date Brightness Start Highest point End Pass type
(mag) Time Alt. Az. Time Alt. Az. Time Alt. Az.
26 Jan -1.9 18:54:34 10° SSW 18:56:11 22° S 18:56:11 22° S visible
27 Jan -2.1 18:02:52 10° S 18:05:17 19° SE 18:06:11 17° ESE visible
27 Jan -0.9 19:38:08 10° WSW 19:38:51 16° WSW 19:38:51 16° WSW visible
28 Jan -3.5 18:45:49 10° SW 18:48:45 53° S 18:48:45 53° S visible
29 Jan -2.9 17:53:40 10° SW 17:56:41 35° SSE 17:58:36 18° E visible
29 Jan -1.5 19:29:47 10° W 19:31:15 24° W 19:31:15 24° W visible
